ECHOSTAR 21 (42749 NORAD) Tracking and Keplerian Element Data

This shows tracking and keplerian element data for the satellite.

Feedback or suggestion? Click here.




ElementValue
Catalog42749
NameECHOSTAR 21
Epoch Orbit1947
Epoch Day269.8213267
Epoch Year2022
RAAN311.6223
Inclination3.7766
Eccentricity0.0002481
Argument of Perigee240.4828
Mean Anonmoly119.461
Mean Motion1.00274488
Decay Rate6.5E-07
L11 42749U 17032A 22269.82132670 .00000065 00000+0 00000+0 0 9998
L22 42749 3.7766 311.6223 0002481 240.4828 119.4610 1.00274488 19475

Live tracking and technical data element details for ECHOSTAR 21 (NORAD 42749). ECHOSTAR 21 can be tracked NOW for your location showing map with azimuth and elevation plus other details from your city location.

Track the satellite on the map from your city or location and see movement details for azimuth, elevation, latitude, longitude, range, height, and movement on the map or in text.







IsCatalogInMostPopularTable: catalog: 42749, numindb: 639
Update: records affected: 1



GetName: 42749 ECHOSTAR 21

Hit Count: updated at: Wed, 28 Sep 2022 22:01:56 GMT